Погода в Петелино

Россия / Тульская область     54°07′38″N   37°42′14″E
темп.,
°C
ветер,
м/с
пор.,
м/с
влажн.,
%
обл.,
%
осадки,
мм/ч
давл.,
гПа
погр.,
м
15 мая, сб
сб1500:00+14юв3994100 1.9 1010186
03:00+15юв3695100 2.0 1009116
06:00+15ююв259711 0.0 1008119
09:00+19ююз598421 0.1 1008560
12:00+21ююз585979 0.0 10091488
15:00+22ююз69540 0.1 10091999
18:00+19ююз510675 0.6 1010978
21:00+15ююз5118036 0.6 1011439
16 мая, вс
вс1600:00+14ююз411880 0.0 1011419
03:00+12ююз39930 0.0 1012247
06:00+13ююз310891 0.0 1013342
09:00+17ююз58705 0.0 1014746
12:00+20ююз6105914 0.1 10141481
15:00+21ююз69530 0.4 10141958
18:00+20зюз46622 0.0 1014702
21:00+16ююз1177100 0.0 101411
17 мая, пн
пн1700:00+14вюв118099 0.0 101411
03:00+13в338569 0.0 101549
06:00+14вюв399195 0.3 1015220
09:00+19в69757 0.3 1013462
12:00+23вюв69595 0.0 1012860
15:00+25юв69555 0.0 10111127
18:00+23вюв611666 0.0 1010742
21:00+19вюв6157813 0.0 1009534
18 мая, вт
вт1800:00+17юв5157995 0.0 1009424
03:00+16юв51375100 0.0 1008327
06:00+16юв51376100 0.0 1007333
09:00+19юв61266100 0.0 1007487
12:00+23ююв8135848 0.0 10061092
15:00+24юв7126389 0.0 10061609
18:00+21ю6127241 0.7 10061141
21:00+17ююв38885 1.1 1006263
19 мая, ср
ср1900:00+15ююв389098 0.0 1006209
03:00+14юв499277 0.0 1006237
06:00+15юв5128830 0.0 1004391
09:00+19ююв61277100 0.6 10031207
12:00+17ю6984100 1.2 1002951
15:00+16ю6108199 7.4 10021053
18:00+16ю610835 2.4 1002943
21:00+11зюз71292100 3.4 1004704